Terminal Aerodrome Forecast
Issued by NWS Raleigh/Durham, NC

Home | Current Version | Previous Version | Text Only | Print | Product List | Glossary On
Versions: 1 2 3 4 5 6 7 8 9 10 11 12 13 14 15 16 17 18 19 20 21 22 23 24 25 26 27 28 29 30 31 32 33 34 35 36 37 38 39 40 41 42 43 44 45 46
000
FTUS42 KRAH 161123
TAFRDU
TAF
KRDU 161123Z 1612/1712 19003KT 4SM BR SCT006 OVC012
      TEMPO 1612/1613 2SM BR OVC005
     FM161500 32005KT P6SM BKN009
     FM161700 36004KT P6SM FEW022 SCT250
     FM162200 VRB03KT P6SM OVC070 PROB30 1622/1702 4SM -SHRA BR
      BKN030=

USA.gov is the U.S. government's official web portal to all federal, state and local government web resources and services.